Home > Time Zones > World Clock > Weather > Spain > Palma > Past weeks

Flag for Spain Weather past 2 weeks in Palma, Majorca, Spain

Now
61 °F

Passing clouds.


Feels Like: 61 °F
Forecast: 58 / 69 °F
Wind: 10 mph from West

Location: Palma De Mallorca / Son San Juan


UV Index: 5 (Moderate)

Visibility: N/A


Pressure: 29.83 "Hg

Humidity: 77%

Dew point: 54 °F

Location of PalmaLocation

Historic Weather in Palma

°F

Palma temperature yesterday

Maximum temperature yesterday: 70 °F (at 12:30 PM)
Minimum temperature yesterday: 48 °F (at 7:00 AM)
Average temperature yesterday: 61 °F

Past Weeks' High & Low Weather Summary

 TemperatureHumidityPressure
High79 °F (Apr 19, 1:30 PM)100% (Apr 10, 5:00 AM)30.15 "Hg (Apr 10, 5:00 AM)
Low45 °F (Apr 18, 5:00 AM)21% (Apr 19, 2:00 PM)29.53 "Hg (Apr 20, 7:30 AM)
Average62 °F74%29.95 "Hg
* Reported Apr 10 5:00 AM — Apr 25 5:30 AM, Palma, Weather by CustomWeather, © 2014

Note: Actual official high and low records may vary slightly from our data, if they occured in-between our weather recording intervals... More about our weather records

Advertising

Historic Weather Conditions — Data for Previous 24 hours

 ConditionsComfort  
Time TempWeatherWind HumidityBarometerVisibility
5:30 AM
Apr 25
61 °FPassing clouds.3 mph83%29.83 "HgN/A
5:00 AM61 °FPassing clouds.1 mph83%29.83 "HgN/A
4:30 AM61 °FRain. Passing clouds.6 mph88%29.83 "HgN/A
4:00 AM63 °FLight rain. Passing clouds.2 mph83%29.83 "HgN/A
3:30 AM63 °FPassing clouds.5 mph83%29.86 "HgN/A
3:00 AM64 °FPassing clouds.9 mph78%29.86 "HgN/A
2:30 AM64 °FPassing clouds.2 mph78%29.89 "HgN/A
2:00 AM63 °FPassing clouds.2 mph77%29.89 "HgN/A
1:30 AM61 °FPassing clouds.No wind83%29.89 "HgN/A
1:00 AM63 °FPassing clouds.3 mph77%29.89 "HgN/A
12:30 AM61 °FPassing clouds.2 mph88%29.92 "HgN/A
12:00 AM59 °FPassing clouds.1 mph82%29.92 "HgN/A
11:30 PM
Apr 24
61 °FPassing clouds.2 mph77%29.92 "HgN/A
11:00 PM63 °FPassing clouds.3 mph73%29.92 "HgN/A
10:30 PM64 °FPassing clouds.1 mph73%29.95 "HgN/A
10:00 PM64 °FPassing clouds.1 mph73%29.95 "HgN/A
9:30 PM64 °FPassing clouds.5 mph73%29.95 "HgN/A
9:00 PM64 °FPassing clouds.6 mph68%29.92 "HgN/A
8:30 PM66 °FPassing clouds.9 mph68%29.92 "HgN/A
8:00 PM66 °FPassing clouds.8 mph64%29.95 "HgN/A
7:30 PM66 °FPassing clouds.10 mph68%29.95 "HgN/A
7:00 PM66 °FPassing clouds.10 mph73%29.95 "HgN/A
6:30 PM68 °FPassing clouds.12 mph69%29.98 "HgN/A
6:00 PM66 °FPassing clouds.12 mph73%29.98 "HgN/A
5:30 PM68 °FPassing clouds.12 mph64%29.98 "HgN/A
5:00 PM68 °FPassing clouds.13 mph69%29.98 "HgN/A
4:30 PM68 °FPassing clouds.12 mph69%30.01 "HgN/A
4:00 PM68 °FPassing clouds.12 mph69%30.01 "HgN/A
3:30 PM70 °FPassing clouds.10 mph64%30.01 "HgN/A
3:00 PM70 °FPassing clouds.8 mph60%30.04 "HgN/A
2:30 PM70 °FPassing clouds.12 mph64%30.04 "HgN/A
2:00 PM70 °FPassing clouds.15 mph57%30.07 "HgN/A
1:30 PM70 °FPassing clouds.14 mph57%30.07 "HgN/A
1:00 PM68 °FPassing clouds.12 mph69%30.07 "HgN/A
12:30 PM70 °FPassing clouds.9 mph73%30.07 "HgN/A
12:00 PM68 °FPassing clouds.9 mph69%30.09 "HgN/A
11:30 AM68 °FPassing clouds.6 mph69%30.09 "HgN/A
11:00 AM68 °FPassing clouds.1 mph73%30.09 "HgN/A
10:30 AM66 °FPassing clouds.No wind83%30.09 "HgN/A
10:00 AM64 °FPassing clouds.1 mph94%30.09 "HgN/A
9:30 AM61 °FFog.2 mph94%30.09 "Hg2 mi
9:00 AM59 °FScattered clouds.No wind94%30.09 "HgN/A
8:30 AM55 °FPassing clouds.No wind100%30.09 "HgN/A
8:00 AM52 °FFog.1 mph100%30.09 "HgN/A
7:46 AM52 °FFog.1 mph94%30.09 "HgN/A
7:30 AM50 °FFog.No wind100%30.09 "HgN/A
7:00 AM48 °FSleet. Fog.No wind100%30.09 "HgN/A
6:30 AM50 °FSleet. Passing clouds.No wind94%30.09 "HgN/A
6:00 AM52 °FPassing clouds.No wind100%30.09 "HgN/A
Weather by CustomWeather, © 2014

See weather overview